Regional Weather Roundup
Issued by NWS Cleveland, OH

Home | Current Version | Previous Version | Text Only | Print | Product List | Glossary Off
Versions: 1 2 3 4 5 6 7 8 9 10 11 12 13 14 15 16 17 18 19 20 21 22 23 24 25 26 27 28 29 30 31 32 33 34 35 36 37 38 39 40 41 42 43 44 45 46 47 48 49 50

000
ASUS41 KCLE 042010
RWRCLE
OHIO REGIONAL WEATHER ROUNDUP
NATIONAL WEATHER SERVICE CLEVELAND, OH
400 PM EDT TUE AUG 04 2015

NOTE: "FAIR" INDICATES FEW OR NO CLOUDS BELOW 12,000 FEET WITH NO
SIGNIFICANT WEATHER AND/OR OBSTRUCTIONS TO VISIBILITY.

OHZ001>008-015>018-024>027-034-035-043-044-042100-
   NORTHWEST OHIO

CITY           SKY/WX    TMP DP  RH WIND       PRES   REMARKS
DEFIANCE       MOSUNNY   83  57  41 NW13      29.96R
FINDLAY        PTSUNNY   80  57  45 W14       29.95S
TOLEDO EXPRESS MOSUNNY   80  55  42 W14       29.94S
TOLEDO EXEC    MOSUNNY   81  55  40 W16       29.94F
LIMA           PTSUNNY   79  57  46 W12       29.98S
$$

OHZ009>014-019>023-028>033-038-089-042100-
   NORTHEAST OHIO

CITY           SKY/WX    TMP DP  RH WIND       PRES   REMARKS
CLE-HOPKINS    MOSUNNY   81  54  39 W10G24    29.95F
CLE-LAKEFRONT  MOSUNNY   79  59  50 W14       29.93S
CUY CO. ARPT   MOSUNNY   82  55  39 W16       29.95F
LORAIN-ELYRIA  PTSUNNY   77  55  46 W6        29.95F
ASHTABULA      MOSUNNY   80  51  36 MISG      29.95S
AKRON-CANTON   MOSUNNY   83  53  35 W10       29.96F
WOOSTER        MOSUNNY   79  55  43 VRB3      29.97F
MANSFIELD      SUNNY     80  53  39 W9        29.98S
YOUNGSTOWN     PTSUNNY   81  51  35 W14       29.96S
$$

OHZ042-051>053-060>062-070>072-077>081-042100-
  SOUTHWEST OHIO

CITY           SKY/WX    TMP DP  RH WIND       PRES   REMARKS
CINC-COVINGTON PTSUNNY   81  60  48 W9        29.99S
CINC-LUNKEN    PTSUNNY   83  56  39 W7        29.97F
HAMILTON       PTSUNNY   84  59  42 VRB7      29.99S
DAYTON         PTSUNNY   80  57  45 NW10      30.00R
WRIGHT-PAT AFB MOSUNNY   82  56  40 SW8       29.97S
DAYTON GENERAL MOSUNNY   82  56  40 W6        29.98S
WILMINGTON     MOSUNNY   82  56  40 W13       29.98S
$$

OHZ036-037-039>041-045>050-054>059-063>069-073>076-082>088-042100-
  CENTRAL AND SOUTHEAST OHIO

CITY           SKY/WX    TMP DP  RH WIND       PRES   REMARKS
COLUMBUS       MOSUNNY   83  55  38 W9        29.96S
OSU AIRPORT    MOSUNNY   81  57  43 W8G18     29.97S
BOLTON FIELD   NOT AVBL
RICKENBACK AFB MOSUNNY   82  59  46 SW7       29.96F
NEWARK         MOSUNNY   82  56  40 W7        29.96F
MARION         SUNNY     81  53  37 W9        29.97F
LANCASTER      SUNNY     82  58  43 VRB5      29.97F
ZANESVILLE     MOSUNNY   83  54  36 W8        29.96F
NEW PHILLY     SUNNY     81  58  45 VRB5      29.97F
$$



USA.gov is the U.S. government's official web portal to all federal, state and local government web resources and services.